Volver al catálogo

STARLINK-32504

ActivoComunicacionesVLEO
NORAD 62024·PAYLOAD·🇺🇸 United States

Lanzado Nov 18, 2024 desde Vandenberg Space Force Base

Loading…

Próximos Pases (próximas 24 horas)

TLE

ActualizadoSource: CelesTrak SupGP

Época: Sep 15, 2026, 02:04 UTC

1 62024C 24213S   26258.08659722  .00043099  00000+0  12734-2 0  2589
2 62024  53.1605   7.0401 0001213  85.1356 199.4477 15.34367727    10

Sigue STARLINK-32504 en tiempo real con AllMySat

Download on the App Store